Home > Weather > Liberia > Past weeks

Flag for Costa Rica Past Weather in Liberia, Costa Rica — Yesterday and Last 2 Weeks

Now
86 °F

Warm.


Feels Like: 92 °F
Forecast: 76 / 93 °F
Wind: 3 mph from Southwest

Location: Liberia/Tomas Guard

Current Time: May 24, 2016 at 9:56:12 AM

Latest Report: May 24, 2016 at 9:00 AM


Visibility: N/A

Pressure: 29.93 "Hg

Humidity: 62%

Dew Point: 72 °F

Location of LiberiaLocation

Past Weather in Liberia — Graph

°F

Liberia Temperature Yesterday

Maximum temperature yesterday: 93 °F (at 1:00 PM)
Minimum temperature yesterday: 75 °F (at 6:00 AM)
Average temperature yesterday: 85 °F

High & Low Weather Summary for the Past Weeks

 TemperatureHumidityPressure
High95 °F (May 10, 1:00 PM)100% (May 10, 12:00 AM)29.93 "Hg (May 10, 12:00 AM)
Low32 °F (May 10, 12:00 AM)32% (May 10, 3:00 PM)29.74 "Hg (May 22, 4:00 PM)
Average85 °F60%29.84 "Hg
* Reported May 9 8:00 AM — May 24 8:00 AM, Liberia, Weather by CustomWeather, © 2016

Note: Actual official high and low records may vary slightly from our data, if they occured in-between our weather recording intervals... More about our weather records

Advertising

Liberia Weather History for the Previous 24 Hours

Scroll right to see more
 ConditionsComfort  
Time TempWeatherWind HumidityBarometerVisibility
8:00 AM
Tue, May 24
84 °FSunny.3 mph70%29.91 "Hg10 mi
7:00 AM81 °FSunny.2 mph79%29.90 "Hg10 mi
6:00 AM77 °FPartly sunny.No wind89%29.89 "HgN/A
12:00 AM79 °FPassing clouds.2 mph84%29.90 "HgN/A
11:00 PM
Mon, May 23
79 °FPassing clouds.1 mph84%29.90 "HgN/A
10:00 PM81 °FPassing clouds.3 mph79%29.89 "HgN/A
9:00 PM81 °FPassing clouds.3 mph74%29.86 "HgN/A
8:00 PM81 °FPassing clouds.2 mph74%29.84 "HgN/A
7:00 PM84 °FPassing clouds.3 mph74%29.82 "HgN/A
6:00 PM86 °FPassing clouds.6 mph62%29.80 "HgN/A
5:00 PM88 °FScattered clouds.8 mph59%29.77 "HgN/A
4:00 PM90 °FPartly sunny.10 mph55%29.77 "HgN/A
3:00 PM90 °FBroken clouds.N/A55%29.77 "HgN/A
2:00 PM90 °FBroken clouds.10 mph55%29.78 "HgN/A
1:00 PM93 °FBroken clouds.9 mph44%29.80 "HgN/A
12:00 PM91 °FPartly sunny.10 mph49%29.82 "HgN/A
11:00 AM90 °FBroken clouds.12 mph52%29.85 "HgN/A
10:00 AM91 °FBroken clouds.12 mph46%29.85 "HgN/A
9:00 AM88 °FBroken clouds.7 mph55%29.86 "HgN/A
Weather by CustomWeather, © 2016

See weather overviewHow to use our weather pages